Location: Unspecified
(41.5000°N, 0.0000°E)
Time: 18:57:41
(UTC+00:00)

A-11 Canister half - Pass Details

Date: 26 June 2019
Orbit: 1526 x 1683 km, 47.3° (Epoch: 19 July)

Event Time Altitude Azimuth Distance (km) Brightness Sun altitude
Exits shadow 03:23:20 12° 230° (SW) 3,628 10.3 -10.2°
Maximum altitude 03:32:22 76° 148° (SSE) 1,595 9.1 -9.0°
Drops below altitude 10° 03:41:41 10° 65° (ENE) 3,703 12.5 -7.7°
Sets 03:44:42 0° 64° (ENE) 4,681 13.4 -7.3°
